| time (UTC) | temp C | wind direction | speed KPH | gust KPH | rain 1hr cm | rain 24hr cm | rain mn cm | humidity % | barometer mb |
| 20260503180435 | 21 | 27 | 3.2 | 11.3 | 0.00 | 0.00 | 0.00 | 55 | 1015.8 |
| 20260503173426 | 20 | 33 | 1.6 | 14.5 | 0.00 | 0.03 | 0.00 | 55 | 1015.8 |
| 20260503171917 | 21 | 75 | 3.2 | 6.4 | 0.00 | 0.03 | 0.00 | 55 | 1016.1 |
| 20260503170418 | 20 | 64 | 3.2 | 9.7 | 0.00 | 0.03 | 0.00 | 55 | 1016.1 |
| 20260503150332 | 15 | 241 | 0.0 | 0.0 | 0.00 | 0.03 | 0.00 | 55 | 1016.1 |
| 20260503140302 | 12 | 204 | 0.0 | 0.0 | 0.00 | 0.03 | 0.00 | 55 | 1016.1 |
| 20260503130232 | 11 | 219 | 0.0 | 0.0 | 0.00 | 0.03 | 0.00 | 55 | 1015.8 |
| 20260503120203 | 11 | 239 | 0.0 | 3.2 | 0.00 | 0.03 | 0.00 | 55 | 1015.8 |
| 20260503110145 | 11 | 226 | 0.0 | 0.0 | 0.00 | 0.03 | 0.00 | 55 | 1016.1 |
| 20260503100117 | 12 | 231 | 0.0 | 0.0 | 0.00 | 0.03 | 0.00 | 55 | 1016.1 |
| 20260503071446 | 14 | 241 | 0.0 | 1.6 | 0.00 | 0.03 | 0.00 | 55 | 1016.8 |
| 20260503054356 | 15 | 232 | 0.0 | 3.2 | 0.00 | 0.03 | 0.03 | 55 | 1016.5 |
| 20260503051339 | 16 | 241 | 0.0 | 0.0 | 0.00 | 0.03 | 0.03 | 55 | 1016.8 |
| 20260503044318 | 16 | 267 | 0.0 | 3.2 | 0.00 | 0.03 | 0.03 | 55 | 1016.8 |
| 20260503042820 | 16 | 241 | 0.0 | 3.2 | 0.00 | 0.03 | 0.03 | 55 | 1016.5 |
| 20260503041310 | 17 | 185 | 0.0 | 3.2 | 0.00 | 0.03 | 0.03 | 55 | 1016.8 |
| 20260503035802 | 17 | 153 | 0.0 | 4.8 | 0.00 | 0.03 | 0.03 | 55 | 1016.5 |
| 20260503034251 | 17 | 102 | 3.2 | 6.4 | 0.00 | 0.03 | 0.03 | 55 | 1016.5 |
| 20260503031231 | 17 | 73 | 1.6 | 4.8 | 0.00 | 0.03 | 0.03 | 55 | 1015.8 |
| 20260503025722 | 18 | 65 | 1.6 | 6.4 | 0.00 | 0.03 | 0.03 | 55 | 1016.1 |
| 20260503024214 | 18 | 304 | 4.8 | 9.7 | 0.00 | 0.03 | 0.03 | 55 | 1015.8 |
| 20260503022704 | 18 | 272 | 3.2 | 6.4 | 0.00 | 0.03 | 0.03 | 55 | 1015.8 |
| 20260503021206 | 18 | 283 | 3.2 | 3.2 | 0.00 | 0.03 | 0.03 | 55 | 1016.1 |
| 20260503014155 | 18 | 161 | 3.2 | 16.1 | 0.00 | 0.03 | 0.03 | 55 | 1017.5 |
| 20260503012647 | 19 | 150 | 4.8 | 9.7 | 0.00 | 0.03 | 0.03 | 55 | 1017.5 |
| 20260503011134 | 19 | 149 | 3.2 | 6.4 | 0.00 | 0.03 | 0.03 | 55 | 1017.1 |
| 20260503005625 | 20 | 138 | 1.6 | 4.8 | 0.00 | 0.03 | 0.03 | 55 | 1016.8 |
| 20260503001117 | 20 | 89 | 1.6 | 4.8 | 0.00 | 0.03 | 0.03 | 55 | 1016.5 |
| 20260502235606 | 19 | 29 | 3.2 | 9.7 | 0.00 | 0.03 | 0.03 | 55 | 1016.5 |
| 20260502234107 | 18 | 250 | 0.0 | 11.3 | 0.00 | 0.03 | 0.03 | 55 | 1016.5 |
| 20260502232558 | 19 | 329 | 4.8 | 6.4 | 0.00 | 0.03 | 0.03 | 55 | 1017.1 |
| 20260502231046 | 18 | 66 | 3.2 | 6.4 | 0.00 | 0.03 | 0.03 | 55 | 1017.1 |
| 20260502224038 | 17 | 70 | 1.6 | 9.7 | 0.00 | 0.03 | 0.03 | 55 | 1017.8 |
| 20260502221029 | 17 | 98 | 3.2 | 9.7 | 0.00 | 0.03 | 0.03 | 55 | 1017.8 |
| 20260502215519 | 17 | 160 | 1.6 | 11.3 | 0.00 | 0.03 | 0.03 | 55 | 1018.2 |
| 20260502212510 | 17 | 178 | 3.2 | 12.9 | 0.00 | 0.03 | 0.03 | 55 | 1018.2 |
| 20260502203950 | 16 | 19 | 8.0 | 11.3 | 0.00 | 0.03 | 0.03 | 55 | 1019.2 |
| 20260502202440 | 15 | 16 | 4.8 | 16.1 | 0.00 | 0.03 | 0.03 | 55 | 1019.2 |
| 20260502200929 | 15 | 53 | 6.4 | 12.9 | 0.00 | 0.03 | 0.03 | 55 | 1019.5 |
| 20260502195430 | 16 | 40 | 1.6 | 14.5 | 0.00 | 0.03 | 0.03 | 55 | 1019.8 |
| 20260502193926 | 15 | 0 | 6.4 | 14.5 | 0.00 | 0.03 | 0.03 | 55 | 1019.8 |
| 20260502192422 | 15 | 79 | 1.6 | 12.9 | 0.00 | 0.03 | 0.03 | 55 | 1019.8 |
| 20260502185412 | 13 | 57 | 3.2 | 12.9 | 0.03 | 0.03 | 0.03 | 55 | 1020.2 |
| 20260502183902 | 13 | 72 | 1.6 | 12.9 | 0.03 | 0.03 | 0.03 | 55 | 1020.5 |